Location: Musselshell
(46.5176°N, 108.0911°W)
Time: 02:09:10
(UTC+00:00)

Oscar 19 - Visible Passes

Search period start: 26 June 2022 00:00
Search period end: 06 July 2022 00:00
Orbit: 772 x 790 km, 98.8° (Epoch: 25 June)

Date Brightness Start Highest point End Pass type
(mag) Time Alt. Az. Time Alt. Az. Time Alt. Az.
26 Jun 12.6 09:50:49 10° NE 09:54:59 24° E 09:59:07 10° SSE visible
27 Jun 13.2 09:20:21 10° ENE 09:22:34 13° E 09:24:47 10° ESE visible
28 Jun 11.5 10:25:30 10° NNE 10:30:28 49° E 10:35:25 10° S visible
29 Jun 12.5 09:53:58 10° NE 09:58:14 26° E 10:02:28 10° SSE visible
30 Jun 13.1 09:23:20 10° ENE 09:25:50 14° E 09:28:20 10° ESE visible
01 Jul 11.4 10:28:42 10° NNE 10:33:43 52° E 10:38:41 10° S visible
02 Jul 12.4 09:57:07 10° NE 10:01:29 27° E 10:05:48 10° SSE visible
03 Jul 13.1 09:26:21 10° NE 09:29:06 14° E 09:31:51 10° ESE visible
04 Jul 11.3 10:31:53 10° NNE 10:36:56 55° E 10:41:57 10° S visible
05 Jul 12.3 10:00:17 10° NE 10:04:43 29° E 10:09:09 10° SSE visible
